User: anonymous   Login
Location: Newark
(37.9800°N, 91.3000°W)
Time: 03:17:45
(UTC+00:00)
Language:

SRMSAT - Orbit

View from above orbital plane
View from above orbital plane
View from above satellite
View from above satellite

Ground track
Ground track

The orbit data is extracted from the following two-line orbital elements,

1 37841U 11058D   19348.45902302  .00000310  00000-0  25495-4 0  9991
2 37841  19.9732  31.1723 0011917   1.5168  26.4719 14.10645519421960
Epoch (UTC): 14 December 2019 11:00:59
Eccentricity: 0.0011917
inclination: 19.9732°
perigee height: 848 km
apogee height: 866 km
right ascension of ascending node: 31.1723°
argument of perigee: 1.5168°
revolutions per day: 14.10645519
mean anomaly at epoch: 26.4719°
orbit number at epoch: 42196

The dashed part of the orbit path shows where the satellite is in the earth's shadow,  

DLR